Time,TemperatureF,DewpointF,PressureIn,WindDirection,WindDirectionDegrees,WindSpeedMPH,WindSpeedGustMPH,Humidity,HourlyPrecipIn,Conditions,Clouds,dailyrainin,SoftwareType,DateUTC
2013-04-19 00:01:00,66.8,60.8,30.02,SSW,192,2.0,3.0,81,0.00,,,0.00,Wunderground v.1.13,2013-04-19 04:01:00,
2013-04-19 00:04:00,66.8,60.8,30.02,South,186,2.0,3.0,81,0.00,,,0.00,Wunderground v.1.13,2013-04-19 04:04:00,
2013-04-19 00:06:00,66.8,60.8,30.02,SSW,202,3.0,3.0,81,0.00,,,0.00,Wunderground v.1.13,2013-04-19 04:06:00,
2013-04-19 00:08:00,66.8,61.1,30.02,WSW,250,1.0,3.0,82,0.00,,,0.00,Wunderground v.1.13,2013-04-19 04:08:00,
2013-04-19 00:13:00,66.8,61.1,30.02,South,175,0.0,1.0,82,0.00,,,0.00,Wunderground v.1.13,2013-04-19 04:13:00,
2013-04-19 00:19:00,66.7,61.0,30.01,South,180,4.0,4.0,82,0.00,,,0.00,Wunderground v.1.13,2013-04-19 04:19:00,
2013-04-19 00:24:00,66.7,61.0,30.01,WSW,248,0.0,2.0,82,0.00,,,0.00,Wunderground v.1.13,2013-04-19 04:24:00,
2013-04-19 00:29:00,66.6,60.9,30.01,SSW,192,1.0,5.0,82,0.00,,,0.00,Wunderground v.1.13,2013-04-19 04:29:00,
2013-04-19 00:34:00,66.4,61.1,30.01,ESE,122,0.0,2.0,83,0.00,,,0.00,Wunderground v.1.13,2013-04-19 04:34:00,
2013-04-19 00:40:00,66.3,61.0,30.01,South,181,0.0,1.0,83,0.00,,,0.00,Wunderground v.1.13,2013-04-19 04:40:00,
2013-04-19 00:45:00,66.2,61.2,30.00,SE,145,0.0,1.0,84,0.00,,,0.00,Wunderground v.1.13,2013-04-19 04:45:00,
2013-04-19 00:50:00,66.1,61.1,30.00,South,173,2.0,2.0,84,0.00,,,0.00,Wunderground v.1.13,2013-04-19 04:50:00,
2013-04-19 00:55:00,66.0,61.0,30.00,SSE,165,4.0,4.0,84,0.00,,,0.00,Wunderground v.1.13,2013-04-19 04:55:00,
2013-04-19 01:01:00,66.1,61.1,30.00,SSW,213,3.0,7.0,84,0.00,,,0.00,Wunderground v.1.13,2013-04-19 05:01:00,
2013-04-19 01:07:00,66.1,61.1,30.00,SSW,204,0.0,2.0,84,0.00,,,0.00,Wunderground v.1.13,2013-04-19 05:07:00,
2013-04-19 01:12:00,66.1,61.1,30.00,SW,230,6.0,6.0,84,0.00,,,0.00,Wunderground v.1.13,2013-04-19 05:12:00,
2013-04-19 01:17:00,66.1,61.5,30.00,SSW,199,2.0,2.0,85,0.00,,,0.00,Wunderground v.1.13,2013-04-19 05:17:00,
2013-04-19 01:23:00,66.0,61.0,29.99,SSW,211,1.0,2.0,84,0.00,,,0.00,Wunderground v.1.13,2013-04-19 05:23:00,
2013-04-19 01:28:00,65.9,61.3,30.00,SSW,211,0.0,5.0,85,0.00,,,0.00,Wunderground v.1.13,2013-04-19 05:28:00,
2013-04-19 01:33:00,65.9,61.3,29.99,WSW,247,4.0,4.0,85,0.00,,,0.00,Wunderground v.1.13,2013-04-19 05:33:00,
2013-04-19 01:38:00,65.8,61.2,29.99,SE,128,0.0,3.0,85,0.00,,,0.00,Wunderground v.1.13,2013-04-19 05:38:00,
2013-04-19 01:43:00,65.8,61.2,29.99,SSW,195,1.0,4.0,85,0.00,,,0.00,Wunderground v.1.13,2013-04-19 05:43:00,
2013-04-19 01:49:00,65.8,61.2,29.99,SSE,165,0.0,5.0,85,0.00,,,0.00,Wunderground v.1.13,2013-04-19 05:49:00,
2013-04-19 01:54:00,65.8,60.8,29.99,SSW,200,0.0,6.0,84,0.00,,,0.00,Wunderground v.1.13,2013-04-19 05:54:00,
2013-04-19 01:59:00,65.8,60.8,29.99,SSE,156,2.0,7.0,84,0.00,,,0.00,Wunderground v.1.13,2013-04-19 05:59:00,
2013-04-19 02:04:00,65.9,60.9,29.98,SSW,213,4.0,7.0,84,0.00,,,0.00,Wunderground v.1.13,2013-04-19 06:04:00,
2013-04-19 02:09:00,66.0,61.0,29.97,SW,236,0.0,9.0,84,0.00,,,0.00,Wunderground v.1.13,2013-04-19 06:09:00,
2013-04-19 02:14:00,66.0,61.0,29.96,WSW,243,6.0,10.0,84,0.00,,,0.00,Wunderground v.1.13,2013-04-19 06:14:00,
2013-04-19 02:19:00,65.9,60.9,29.95,West,269,3.0,11.0,84,0.00,,,0.00,Wunderground v.1.13,2013-04-19 06:19:00,
2013-04-19 02:24:00,65.9,60.9,29.96,SSE,165,2.0,2.0,84,0.00,,,0.00,Wunderground v.1.13,2013-04-19 06:24:00,
2013-04-19 02:29:00,65.8,61.2,29.96,South,171,1.0,6.0,85,0.00,,,0.00,Wunderground v.1.13,2013-04-19 06:29:00,
2013-04-19 02:34:00,65.8,61.2,29.96,WSW,250,7.0,16.0,85,0.00,,,0.00,Wunderground v.1.13,2013-04-19 06:34:00,
2013-04-19 02:39:00,65.9,60.9,29.96,SE,146,0.0,12.0,84,0.00,,,0.00,Wunderground v.1.13,2013-04-19 06:39:00,
2013-04-19 02:44:00,66.1,61.1,29.95,SSW,207,1.0,13.0,84,0.00,,,0.00,Wunderground v.1.13,2013-04-19 06:44:00,
2013-04-19 02:49:00,66.0,61.4,29.95,SSE,161,0.0,7.0,85,0.00,,,0.00,Wunderground v.1.13,2013-04-19 06:49:00,
2013-04-19 02:54:00,65.9,60.9,29.93,SSE,155,1.0,13.0,84,0.00,,,0.00,Wunderground v.1.13,2013-04-19 06:54:00,
2013-04-19 02:59:00,65.8,60.8,29.93,SE,139,0.0,18.0,84,0.00,,,0.00,Wunderground v.1.13,2013-04-19 06:59:00,
2013-04-19 03:04:00,65.8,60.8,29.92,SSW,201,2.0,16.0,84,0.00,,,0.00,Wunderground v.1.13,2013-04-19 07:04:00,
2013-04-19 03:09:00,65.8,60.8,29.92,ESE,115,2.0,14.0,84,0.00,,,0.00,Wunderground v.1.13,2013-04-19 07:09:00,
2013-04-19 03:14:00,65.8,60.8,29.92,SW,234,0.0,11.0,84,0.00,,,0.00,Wunderground v.1.13,2013-04-19 07:14:00,
2013-04-19 03:19:00,65.7,60.7,29.92,SSE,163,7.0,10.0,84,0.00,,,0.00,Wunderground v.1.13,2013-04-19 07:19:00,
2013-04-19 03:24:00,65.7,60.7,29.92,SSE,149,0.0,16.0,84,0.00,,,0.00,Wunderground v.1.13,2013-04-19 07:24:00,
2013-04-19 03:29:00,65.7,60.7,29.92,South,171,10.0,11.0,84,0.00,,,0.00,Wunderground v.1.13,2013-04-19 07:29:00,
2013-04-19 03:34:00,65.7,61.1,29.92,SSE,160,0.0,5.0,85,0.00,,,0.00,Wunderground v.1.13,2013-04-19 07:34:00,
2013-04-19 03:39:00,65.6,61.0,29.92,South,177,3.0,6.0,85,0.00,,,0.00,Wunderground v.1.13,2013-04-19 07:39:00,
2013-04-19 03:44:00,65.6,61.0,29.91,East,90,2.0,11.0,85,0.00,,,0.00,Wunderground v.1.13,2013-04-19 07:44:00,
2013-04-19 03:49:00,65.6,61.0,29.91,WSW,240,4.0,6.0,85,0.00,,,0.00,Wunderground v.1.13,2013-04-19 07:49:00,
2013-04-19 03:54:00,65.5,60.9,29.91,SSE,155,0.0,10.0,85,0.00,,,0.00,Wunderground v.1.13,2013-04-19 07:54:00,
2013-04-19 03:59:00,65.4,60.8,29.90,SSE,162,0.0,15.0,85,0.00,,,0.00,Wunderground v.1.13,2013-04-19 07:59:00,
2013-04-19 04:04:00,65.4,60.8,29.91,WSW,257,5.0,18.0,85,0.00,,,0.00,Wunderground v.1.13,2013-04-19 08:04:00,
2013-04-19 04:09:00,65.4,60.8,29.89,South,173,0.0,9.0,85,0.00,,,0.00,Wunderground v.1.13,2013-04-19 08:09:00,
2013-04-19 04:14:00,65.3,60.7,29.89,West,259,1.0,9.0,85,0.00,,,0.00,Wunderground v.1.13,2013-04-19 08:14:00,
2013-04-19 04:19:00,65.3,60.7,29.89,SSW,192,4.0,13.0,85,0.00,,,0.00,Wunderground v.1.13,2013-04-19 08:19:00,
2013-04-19 04:24:00,65.3,60.7,29.89,NE,44,0.0,11.0,85,0.00,,,0.00,Wunderground v.1.13,2013-04-19 08:24:00,
2013-04-19 04:29:00,65.2,60.6,29.88,South,175,4.0,13.0,85,0.00,,,0.00,Wunderground v.1.13,2013-04-19 08:29:00,
2013-04-19 04:35:00,65.2,60.6,29.89,South,169,13.0,13.0,85,0.00,,,0.00,Wunderground v.1.13,2013-04-19 08:35:00,
2013-04-19 04:40:00,65.2,60.6,29.89,SSE,154,7.0,7.0,85,0.00,,,0.00,Wunderground v.1.13,2013-04-19 08:40:00,
2013-04-19 04:45:00,65.2,60.6,29.90,SSE,155,10.0,10.0,85,0.00,,,0.00,Wunderground v.1.13,2013-04-19 08:45:00,
2013-04-19 04:50:00,65.2,60.6,29.91,SSE,163,0.0,4.0,85,0.00,,,0.00,Wunderground v.1.13,2013-04-19 08:50:00,
2013-04-19 04:55:00,65.1,60.5,29.91,South,175,0.0,4.0,85,0.00,,,0.00,Wunderground v.1.13,2013-04-19 08:55:00,
2013-04-19 05:00:00,65.1,60.5,29.91,ESE,123,4.0,4.0,85,0.00,,,0.00,Wunderground v.1.13,2013-04-19 09:00:00,
2013-04-19 05:05:00,65.2,60.2,29.91,SE,134,0.0,3.0,84,0.00,,,0.00,Wunderground v.1.13,2013-04-19 09:05:00,
2013-04-19 05:10:00,65.2,60.2,29.91,SSE,167,8.0,8.0,84,0.00,,,0.00,Wunderground v.1.13,2013-04-19 09:10:00,
2013-04-19 05:15:00,65.2,60.2,29.91,ESE,103,9.0,9.0,84,0.00,,,0.00,Wunderground v.1.13,2013-04-19 09:15:00,
2013-04-19 05:20:00,65.4,60.1,29.91,SE,126,4.0,9.0,83,0.00,,,0.00,Wunderground v.1.13,2013-04-19 09:20:00,
2013-04-19 05:25:00,65.5,59.9,29.91,SSW,199,1.0,3.0,82,0.00,,,0.00,Wunderground v.1.13,2013-04-19 09:25:00,
2013-04-19 05:30:00,65.5,60.2,29.91,SSW,192,4.0,4.0,83,0.00,,,0.00,Wunderground v.1.13,2013-04-19 09:30:00,
2013-04-19 05:35:00,65.4,60.1,29.91,SSW,195,0.0,1.0,83,0.00,,,0.00,Wunderground v.1.13,2013-04-19 09:35:00,
2013-04-19 05:40:00,65.4,60.1,29.91,South,180,0.0,3.0,83,0.00,,,0.00,Wunderground v.1.13,2013-04-19 09:40:00,
2013-04-19 05:45:00,65.3,60.3,29.91,South,182,0.0,2.0,84,0.00,,,0.00,Wunderground v.1.13,2013-04-19 09:45:00,
2013-04-19 05:50:00,65.2,60.2,29.92,SE,135,0.0,8.0,84,0.00,,,0.00,Wunderground v.1.13,2013-04-19 09:50:00,
2013-04-19 05:55:00,65.2,60.2,29.91,SW,233,1.0,1.0,84,0.00,,,0.00,Wunderground v.1.13,2013-04-19 09:55:00,
2013-04-19 06:00:00,65.1,60.5,29.91,South,171,0.0,1.0,85,0.00,,,0.00,Wunderground v.1.13,2013-04-19 10:00:00,
2013-04-19 06:05:00,65.0,60.4,29.91,SSE,165,0.0,1.0,85,0.00,,,0.00,Wunderground v.1.13,2013-04-19 10:05:00,
2013-04-19 06:10:00,64.9,60.6,29.91,SSE,157,0.0,1.0,86,0.00,,,0.00,Wunderground v.1.13,2013-04-19 10:10:00,
2013-04-19 06:15:00,64.9,60.6,29.91,East,98,1.0,5.0,86,0.00,,,0.00,Wunderground v.1.13,2013-04-19 10:15:00,
2013-04-19 06:20:00,64.7,60.7,29.91,ESE,113,0.0,1.0,87,0.00,,,0.00,Wunderground v.1.13,2013-04-19 10:20:00,
2013-04-19 06:25:00,64.6,60.6,29.91,SE,136,0.0,1.0,87,0.00,,,0.00,Wunderground v.1.13,2013-04-19 10:25:00,
2013-04-19 06:30:00,64.5,60.9,29.91,ESE,119,0.0,3.0,88,0.00,,,0.00,Wunderground v.1.13,2013-04-19 10:30:00,
2013-04-19 06:35:00,64.4,60.8,29.91,South,188,7.0,7.0,88,0.00,,,0.00,Wunderground v.1.13,2013-04-19 10:35:00,
2013-04-19 06:40:00,64.4,60.4,29.91,South,178,0.0,2.0,87,0.00,,,0.00,Wunderground v.1.13,2013-04-19 10:40:00,
2013-04-19 06:45:00,64.5,60.5,29.91,South,169,0.0,2.0,87,0.00,,,0.00,Wunderground v.1.13,2013-04-19 10:45:00,
2013-04-19 06:50:00,64.5,60.5,29.90,SW,218,0.0,2.0,87,0.00,,,0.00,Wunderground v.1.13,2013-04-19 10:50:00,
2013-04-19 06:55:00,64.4,60.8,29.91,SSW,196,4.0,5.0,88,0.00,,,0.00,Wunderground v.1.13,2013-04-19 10:55:00,
2013-04-19 07:00:00,64.3,60.7,29.90,South,182,2.0,8.0,88,0.00,,,0.00,Wunderground v.1.13,2013-04-19 11:00:00,
2013-04-19 07:05:00,64.3,60.7,29.91,SSE,155,0.0,7.0,88,0.00,,,0.00,Wunderground v.1.13,2013-04-19 11:05:00,
2013-04-19 07:10:00,64.3,60.7,29.91,South,174,0.0,2.0,88,0.00,,,0.00,Wunderground v.1.13,2013-04-19 11:10:00,
2013-04-19 07:15:00,64.5,60.9,29.92,South,173,4.0,11.0,88,0.00,,,0.00,Wunderground v.1.13,2013-04-19 11:15:00,
2013-04-19 07:20:00,64.7,61.1,29.92,SSE,161,0.0,2.0,88,0.00,,,0.00,Wunderground v.1.13,2013-04-19 11:20:00,
2013-04-19 07:25:00,64.7,60.7,29.91,SSE,158,0.0,1.0,87,0.00,,,0.00,Wunderground v.1.13,2013-04-19 11:25:00,
2013-04-19 07:30:00,64.9,60.6,29.91,SSE,163,1.0,2.0,86,0.00,,,0.00,Wunderground v.1.13,2013-04-19 11:30:00,
2013-04-19 07:35:00,65.1,60.8,29.91,SW,217,2.0,12.0,86,0.00,,,0.00,Wunderground v.1.13,2013-04-19 11:35:00,
2013-04-19 07:40:00,64.9,61.3,29.91,SW,223,0.0,4.0,88,0.00,,,0.01,Wunderground v.1.13,2013-04-19 11:40:00,
2013-04-19 07:45:00,64.7,61.4,29.90,North,5,3.0,3.0,89,0.00,,,0.01,Wunderground v.1.13,2013-04-19 11:45:00,
2013-04-19 07:50:00,64.6,61.0,29.90,ENE,59,5.0,5.0,88,0.00,,,0.01,Wunderground v.1.13,2013-04-19 11:50:00,
2013-04-19 07:56:00,64.8,61.2,29.90,ESE,107,3.0,8.0,88,0.00,,,0.01,Wunderground v.1.13,2013-04-19 11:56:00,
2013-04-19 08:01:00,65.0,61.0,29.89,ESE,111,1.0,3.0,87,0.00,,,0.01,Wunderground v.1.13,2013-04-19 12:01:00,
2013-04-19 08:06:00,65.0,61.4,29.90,SW,225,1.0,3.0,88,0.00,,,0.01,Wunderground v.1.13,2013-04-19 12:06:00,
2013-04-19 08:11:00,64.7,61.4,29.91,SE,132,1.0,10.0,89,0.00,,,0.01,Wunderground v.1.13,2013-04-19 12:11:00,
2013-04-19 08:16:00,64.6,61.6,29.91,ESE,105,0.0,2.0,90,0.00,,,0.01,Wunderground v.1.13,2013-04-19 12:16:00,
2013-04-19 08:21:00,64.5,61.5,29.91,South,183,0.0,1.0,90,0.00,,,0.01,Wunderground v.1.13,2013-04-19 12:21:00,
2013-04-19 08:26:00,64.5,61.8,29.90,SE,135,1.0,7.0,91,0.00,,,0.02,Wunderground v.1.13,2013-04-19 12:26:00,
2013-04-19 08:31:00,64.4,61.7,29.90,South,183,1.0,2.0,91,0.00,,,0.02,Wunderground v.1.13,2013-04-19 12:31:00,
2013-04-19 08:36:00,64.4,61.7,29.90,SSW,203,0.0,1.0,91,0.07,,,0.03,Wunderground v.1.13,2013-04-19 12:36:00,
2013-04-19 08:41:00,64.2,61.8,29.89,SSW,194,2.0,3.0,92,0.07,,,0.03,Wunderground v.1.13,2013-04-19 12:41:00,
2013-04-19 08:46:00,64.2,61.8,29.89,South,190,1.0,4.0,92,0.05,,,0.04,Wunderground v.1.13,2013-04-19 12:46:00,
2013-04-19 08:51:00,64.2,61.5,29.90,SSE,162,0.0,18.0,91,0.17,,,0.05,Wunderground v.1.13,2013-04-19 12:51:00,
2013-04-19 08:56:00,64.2,61.8,29.91,SSW,197,0.0,5.0,92,0.09,,,0.06,Wunderground v.1.13,2013-04-19 12:56:00,
2013-04-19 09:01:00,64.0,61.6,29.90,South,176,2.0,2.0,92,0.20,,,0.08,Wunderground v.1.13,2013-04-19 13:01:00,
2013-04-19 09:06:00,63.8,61.7,29.88,SSE,153,0.0,5.0,93,0.28,,,0.10,Wunderground v.1.13,2013-04-19 13:06:00,
2013-04-19 09:11:00,63.7,61.6,29.88,East,100,0.0,2.0,93,0.14,,,0.12,Wunderground v.1.13,2013-04-19 13:11:00,
2013-04-19 09:16:00,63.6,61.5,29.87,South,173,12.0,12.0,93,0.13,,,0.13,Wunderground v.1.13,2013-04-19 13:16:00,
2013-04-19 09:21:00,63.5,61.4,29.89,South,178,0.0,2.0,93,0.09,,,0.13,Wunderground v.1.13,2013-04-19 13:21:00,
2013-04-19 09:26:00,63.4,61.3,29.88,South,176,3.0,5.0,93,0.07,,,0.14,Wunderground v.1.13,2013-04-19 13:26:00,
2013-04-19 09:31:00,63.4,61.3,29.89,South,186,0.0,1.0,93,0.07,,,0.14,Wunderground v.1.13,2013-04-19 13:31:00,
2013-04-19 09:36:00,63.4,61.3,29.88,SSE,167,0.0,5.0,93,0.05,,,0.14,Wunderground v.1.13,2013-04-19 13:36:00,
2013-04-19 09:41:00,63.8,61.7,29.88,South,176,6.0,6.0,93,0.00,,,0.14,Wunderground v.1.13,2013-04-19 13:41:00,
2013-04-19 09:46:00,64.0,61.6,29.88,South,187,0.0,8.0,92,0.00,,,0.14,Wunderground v.1.13,2013-04-19 13:46:00,
2013-04-19 09:51:00,64.1,61.7,29.88,South,186,0.0,2.0,92,0.00,,,0.14,Wunderground v.1.13,2013-04-19 13:51:00,
2013-04-19 09:56:00,64.3,61.6,29.87,SSW,194,1.0,9.0,91,0.00,,,0.14,Wunderground v.1.13,2013-04-19 13:56:00,
2013-04-19 10:01:00,64.6,61.9,29.88,NE,42,1.0,2.0,91,0.00,,,0.14,Wunderground v.1.13,2013-04-19 14:01:00,
2013-04-19 10:06:00,64.6,62.2,29.88,South,183,0.0,1.0,92,0.00,,,0.14,Wunderground v.1.13,2013-04-19 14:06:00,
2013-04-19 10:11:00,64.7,61.7,29.87,SE,142,0.0,9.0,90,0.00,,,0.14,Wunderground v.1.13,2013-04-19 14:11:00,
2013-04-19 10:16:00,64.7,62.0,29.87,South,186,0.0,6.0,91,0.20,,,0.16,Wunderground v.1.13,2013-04-19 14:16:00,
2013-04-19 10:21:00,64.5,62.1,29.87,ENE,77,1.0,2.0,92,0.58,,,0.19,Wunderground v.1.13,2013-04-19 14:21:00,
2013-04-19 10:26:00,64.0,61.9,29.87,SSW,192,0.0,3.0,93,0.75,,,0.30,Wunderground v.1.13,2013-04-19 14:26:00,
2013-04-19 10:31:00,63.7,61.9,29.87,SSW,200,0.0,1.0,94,0.55,,,0.39,Wunderground v.1.13,2013-04-19 14:31:00,
2013-04-19 10:36:00,63.4,61.9,29.87,South,191,0.0,5.0,95,0.21,,,0.40,Wunderground v.1.13,2013-04-19 14:36:00,
2013-04-19 10:41:00,63.3,61.8,29.87,SSE,161,1.0,2.0,95,0.16,,,0.42,Wunderground v.1.13,2013-04-19 14:41:00,
2013-04-19 10:47:00,63.2,62.0,29.87,SSE,161,0.0,0.0,96,0.22,,,0.43,Wunderground v.1.13,2013-04-19 14:47:00,
2013-04-19 10:52:00,63.1,61.9,29.87,SSE,164,0.0,2.0,96,0.08,,,0.43,Wunderground v.1.13,2013-04-19 14:52:00,
2013-04-19 10:57:00,63.0,61.8,29.87,SSE,164,0.0,0.0,96,0.39,,,0.50,Wunderground v.1.13,2013-04-19 14:57:00,
2013-04-19 11:02:00,63.0,61.8,29.87,SSE,164,0.0,1.0,96,0.31,,,0.52,Wunderground v.1.13,2013-04-19 15:02:00,
2013-04-19 11:07:00,63.0,61.8,29.86,SSE,164,0.0,0.0,96,0.43,,,0.57,Wunderground v.1.13,2013-04-19 15:07:00,
2013-04-19 11:12:00,63.1,61.9,29.87,SSE,164,0.0,0.0,96,0.09,,,0.57,Wunderground v.1.13,2013-04-19 15:12:00,
2013-04-19 11:17:00,63.0,62.1,29.88,WSW,242,0.0,1.0,97,0.31,,,0.59,Wunderground v.1.13,2013-04-19 15:17:00,
2013-04-19 11:22:00,62.9,62.0,29.88,WSW,242,0.0,1.0,97,0.38,,,0.63,Wunderground v.1.13,2013-04-19 15:22:00,
2013-04-19 11:27:00,62.3,61.1,29.89,SW,232,0.0,7.0,96,0.15,,,0.64,Wunderground v.1.13,2013-04-19 15:27:00,
2013-04-19 11:32:00,61.2,59.8,29.91,SW,219,4.0,7.0,95,0.34,,,0.66,Wunderground v.1.13,2013-04-19 15:32:00,
2013-04-19 11:37:00,60.3,58.9,29.92,SW,229,2.0,8.0,95,0.15,,,0.67,Wunderground v.1.13,2013-04-19 15:37:00,
2013-04-19 11:42:00,59.5,57.8,29.92,SSW,198,0.0,5.0,94,0.13,,,0.68,Wunderground v.1.13,2013-04-19 15:42:00,
2013-04-19 11:47:00,58.8,56.8,29.92,WSW,245,4.0,5.0,93,0.07,,,0.69,Wunderground v.1.13,2013-04-19 15:47:00,
2013-04-19 11:52:00,58.3,56.6,29.93,SW,232,2.0,5.0,94,0.07,,,0.69,Wunderground v.1.13,2013-04-19 15:52:00,
2013-04-19 11:57:00,58.0,56.3,29.92,North,355,0.0,2.0,94,0.06,,,0.70,Wunderground v.1.13,2013-04-19 15:57:00,
2013-04-19 12:02:00,57.8,56.4,29.92,NW,322,0.0,3.0,95,0.10,,,0.70,Wunderground v.1.13,2013-04-19 16:02:00,
2013-04-19 12:07:00,57.5,56.1,29.93,West,260,2.0,3.0,95,0.10,,,0.71,Wunderground v.1.13,2013-04-19 16:07:00,
2013-04-19 12:12:00,57.3,55.9,29.93,SW,231,0.0,4.0,95,0.15,,,0.73,Wunderground v.1.13,2013-04-19 16:12:00,
2013-04-19 12:17:00,56.9,55.5,29.94,SW,230,0.0,5.0,95,0.17,,,0.74,Wunderground v.1.13,2013-04-19 16:17:00,
2013-04-19 12:22:00,56.8,55.4,29.93,SW,232,1.0,2.0,95,0.13,,,0.75,Wunderground v.1.13,2013-04-19 16:22:00,
2013-04-19 12:27:00,56.7,55.6,29.94,WSW,240,0.0,4.0,96,0.12,,,0.76,Wunderground v.1.13,2013-04-19 16:27:00,
2013-04-19 12:32:00,56.6,55.5,29.94,SSW,209,0.0,2.0,96,0.14,,,0.77,Wunderground v.1.13,2013-04-19 16:32:00,
2013-04-19 12:37:00,56.6,55.5,29.95,SSW,209,0.0,1.0,96,0.09,,,0.78,Wunderground v.1.13,2013-04-19 16:37:00,
2013-04-19 12:42:00,56.4,55.3,29.94,North,355,4.0,4.0,96,0.09,,,0.78,Wunderground v.1.13,2013-04-19 16:42:00,
2013-04-19 12:47:00,55.9,54.8,29.94,North,5,1.0,4.0,96,0.05,,,0.78,Wunderground v.1.13,2013-04-19 16:47:00,
2013-04-19 12:53:00,55.6,54.5,29.93,North,5,0.0,2.0,96,0.04,,,0.79,Wunderground v.1.13,2013-04-19 16:53:00,
2013-04-19 12:58:00,55.4,54.3,29.94,North,5,0.0,4.0,96,0.31,,,0.81,Wunderground v.1.13,2013-04-19 16:58:00,
2013-04-19 13:03:00,55.0,53.9,29.95,SW,236,0.0,3.0,96,0.20,,,0.83,Wunderground v.1.13,2013-04-19 17:03:00,
2013-04-19 13:08:00,54.9,53.8,29.95,WSW,237,0.0,1.0,96,0.09,,,0.83,Wunderground v.1.13,2013-04-19 17:08:00,
2013-04-19 13:13:00,54.8,53.7,29.95,NNW,346,0.0,3.0,96,0.05,,,0.83,Wunderground v.1.13,2013-04-19 17:13:00,
2013-04-19 13:18:00,54.8,53.7,29.94,NNW,346,0.0,1.0,96,0.04,,,0.83,Wunderground v.1.13,2013-04-19 17:18:00,
2013-04-19 13:23:00,54.7,53.6,29.95,NNW,346,0.0,3.0,96,0.00,,,0.83,Wunderground v.1.13,2013-04-19 17:23:00,
2013-04-19 13:28:00,54.6,53.5,29.95,NNW,346,0.0,2.0,96,0.18,,,0.85,Wunderground v.1.13,2013-04-19 17:28:00,
2013-04-19 13:33:00,54.4,53.3,29.95,NNW,346,1.0,3.0,96,0.18,,,0.87,Wunderground v.1.13,2013-04-19 17:33:00,
2013-04-19 13:38:00,54.3,53.2,29.94,North,355,0.0,1.0,96,0.11,,,0.87,Wunderground v.1.13,2013-04-19 17:38:00,
2013-04-19 13:43:00,54.1,53.0,29.94,North,355,1.0,2.0,96,0.06,,,0.87,Wunderground v.1.13,2013-04-19 17:43:00,
2013-04-19 13:48:00,53.9,52.8,29.94,North,355,4.0,4.0,96,0.26,,,0.89,Wunderground v.1.13,2013-04-19 17:48:00,
2013-04-19 13:53:00,53.7,52.6,29.94,North,355,1.0,4.0,96,0.35,,,0.91,Wunderground v.1.13,2013-04-19 17:53:00,
2013-04-19 13:58:00,53.3,52.2,29.94,NW,311,0.0,3.0,96,0.10,,,0.91,Wunderground v.1.13,2013-04-19 17:58:00,
2013-04-19 14:03:00,53.1,52.0,29.95,NNW,348,1.0,5.0,96,0.05,,,0.91,Wunderground v.1.13,2013-04-19 18:03:00,
2013-04-19 14:08:00,53.0,51.9,29.96,NW,308,2.0,2.0,96,0.04,,,0.91,Wunderground v.1.13,2013-04-19 18:08:00,
2013-04-19 14:13:00,52.9,51.8,29.96,NW,304,0.0,1.0,96,0.00,,,0.91,Wunderground v.1.13,2013-04-19 18:13:00,
2013-04-19 14:18:00,52.9,51.8,29.96,NNE,18,0.0,0.0,96,0.00,,,0.91,Wunderground v.1.13,2013-04-19 18:18:00,
2013-04-19 14:23:00,53.0,51.9,29.96,NNE,18,0.0,1.0,96,0.00,,,0.91,Wunderground v.1.13,2013-04-19 18:23:00,
2013-04-19 14:28:00,53.1,52.3,29.96,NNE,18,0.0,2.0,97,0.00,,,0.91,Wunderground v.1.13,2013-04-19 18:28:00,
2013-04-19 14:33:00,53.2,52.4,29.97,NW,321,0.0,4.0,97,0.00,,,0.91,Wunderground v.1.13,2013-04-19 18:33:00,
2013-04-19 14:38:00,53.0,51.9,29.97,NNW,338,1.0,2.0,96,0.00,,,0.91,Wunderground v.1.13,2013-04-19 18:38:00,
2013-04-19 14:43:00,52.5,50.8,29.98,NW,318,3.0,6.0,94,0.00,,,0.91,Wunderground v.1.13,2013-04-19 18:43:00,
2013-04-19 14:48:00,52.2,50.5,29.96,North,5,0.0,4.0,94,0.00,,,0.91,Wunderground v.1.13,2013-04-19 18:48:00,
2013-04-19 14:53:00,51.9,50.2,29.97,NNE,17,0.0,4.0,94,0.00,,,0.91,Wunderground v.1.13,2013-04-19 18:53:00,
2013-04-19 14:58:00,51.9,50.5,29.97,North,9,1.0,3.0,95,0.00,,,0.91,Wunderground v.1.13,2013-04-19 18:58:00,
2013-04-19 15:03:00,51.9,50.5,29.97,North,9,0.0,3.0,95,0.00,,,0.91,Wunderground v.1.13,2013-04-19 19:03:00,
2013-04-19 15:08:00,51.8,50.4,29.95,NW,311,0.0,4.0,95,0.00,,,0.91,Wunderground v.1.13,2013-04-19 19:08:00,
2013-04-19 15:14:00,51.7,50.0,29.95,NW,306,1.0,1.0,94,0.00,,,0.91,Wunderground v.1.13,2013-04-19 19:14:00,
2013-04-19 15:19:00,51.8,50.4,29.94,NW,306,2.0,2.0,95,0.00,,,0.91,Wunderground v.1.13,2013-04-19 19:19:00,
2013-04-19 15:24:00,51.6,50.2,29.95,WNW,294,0.0,4.0,95,0.00,,,0.91,Wunderground v.1.13,2013-04-19 19:24:00,
2013-04-19 15:29:00,51.5,50.1,29.95,North,360,3.0,4.0,95,0.00,,,0.91,Wunderground v.1.13,2013-04-19 19:29:00,
2013-04-19 15:34:00,51.4,50.0,29.95,North,5,0.0,5.0,95,0.00,,,0.91,Wunderground v.1.13,2013-04-19 19:34:00,
2013-04-19 15:39:00,51.2,49.5,29.94,North,355,2.0,4.0,94,0.00,,,0.91,Wunderground v.1.13,2013-04-19 19:39:00,
2013-04-19 15:44:00,51.3,49.3,29.95,North,355,0.0,4.0,93,0.00,,,0.91,Wunderground v.1.13,2013-04-19 19:44:00,
2013-04-19 15:49:00,51.4,49.4,29.95,North,9,2.0,4.0,93,0.00,,,0.91,Wunderground v.1.13,2013-04-19 19:49:00,
2013-04-19 15:54:00,51.4,48.9,29.94,North,349,2.0,3.0,91,0.00,,,0.91,Wunderground v.1.13,2013-04-19 19:54:00,
2013-04-19 15:59:00,51.3,48.5,29.94,North,355,2.0,4.0,90,0.00,,,0.91,Wunderground v.1.13,2013-04-19 19:59:00,
2013-04-19 16:04:00,51.6,49.1,29.95,North,11,0.0,5.0,91,0.00,,,0.91,Wunderground v.1.13,2013-04-19 20:04:00,
2013-04-19 16:09:00,51.6,48.8,29.96,NW,317,1.0,6.0,90,0.00,,,0.91,Wunderground v.1.13,2013-04-19 20:09:00,
2013-04-19 16:14:00,51.6,48.8,29.96,North,355,2.0,4.0,90,0.00,,,0.91,Wunderground v.1.13,2013-04-19 20:14:00,
2013-04-19 16:19:00,51.6,48.2,29.96,North,360,1.0,5.0,88,0.00,,,0.91,Wunderground v.1.13,2013-04-19 20:19:00,
2013-04-19 16:24:00,51.5,47.8,29.96,North,360,1.0,7.0,87,0.00,,,0.91,Wunderground v.1.13,2013-04-19 20:24:00,
2013-04-19 16:29:00,51.7,48.6,29.97,NNE,15,1.0,5.0,89,0.00,,,0.91,Wunderground v.1.13,2013-04-19 20:29:00,
2013-04-19 16:34:00,52.0,48.3,29.97,North,9,2.0,5.0,87,0.00,,,0.91,Wunderground v.1.13,2013-04-19 20:34:00,
2013-04-19 16:39:00,52.1,48.3,29.98,WNW,290,1.0,8.0,87,0.00,,,0.91,Wunderground v.1.13,2013-04-19 20:39:00,
2013-04-19 16:44:00,51.9,47.8,29.97,WNW,294,3.0,7.0,86,0.00,,,0.91,Wunderground v.1.13,2013-04-19 20:44:00,
2013-04-19 16:49:00,51.8,47.4,29.96,West,281,8.0,8.0,85,0.00,,,0.91,Wunderground v.1.13,2013-04-19 20:49:00,
2013-04-19 16:54:00,51.7,46.1,29.97,NNE,13,0.0,5.0,81,0.00,,,0.91,Wunderground v.1.13,2013-04-19 20:54:00,
2013-04-19 16:59:00,51.7,46.1,29.98,WNW,301,2.0,8.0,81,0.00,,,0.91,Wunderground v.1.13,2013-04-19 20:59:00,
2013-04-19 17:04:00,51.7,45.7,29.98,North,5,4.0,5.0,80,0.00,,,0.91,Wunderground v.1.13,2013-04-19 21:04:00,
2013-04-19 17:09:00,51.6,46.0,29.98,NNE,12,5.0,7.0,81,0.00,,,0.91,Wunderground v.1.13,2013-04-19 21:09:00,
2013-04-19 17:14:00,51.4,45.1,29.98,NW,311,1.0,6.0,79,0.00,,,0.91,Wunderground v.1.13,2013-04-19 21:14:00,
2013-04-19 17:19:00,51.3,46.0,29.98,NW,320,2.0,5.0,82,0.00,,,0.91,Wunderground v.1.13,2013-04-19 21:19:00,
2013-04-19 17:24:00,51.0,45.0,29.99,North,351,0.0,7.0,80,0.00,,,0.91,Wunderground v.1.13,2013-04-19 21:24:00,
2013-04-19 17:29:00,50.7,44.1,29.99,North,5,2.0,9.0,78,0.00,,,0.91,Wunderground v.1.13,2013-04-19 21:29:00,
2013-04-19 17:34:00,50.6,44.3,29.98,North,360,1.0,5.0,79,0.00,,,0.91,Wunderground v.1.13,2013-04-19 21:34:00,
2013-04-19 17:39:00,50.5,44.6,29.98,North,5,3.0,4.0,80,0.00,,,0.91,Wunderground v.1.13,2013-04-19 21:39:00,
2013-04-19 17:44:00,50.4,44.1,29.98,North,355,0.0,5.0,79,0.00,,,0.91,Wunderground v.1.13,2013-04-19 21:44:00,
2013-04-19 17:49:00,50.3,44.0,29.96,North,360,3.0,6.0,79,0.00,,,0.91,Wunderground v.1.13,2013-04-19 21:49:00,
2013-04-19 17:54:00,50.1,43.5,29.96,North,360,4.0,5.0,78,0.00,,,0.91,Wunderground v.1.13,2013-04-19 21:54:00,
2013-04-19 17:59:00,49.8,42.5,29.96,North,355,0.0,7.0,76,0.00,,,0.91,Wunderground v.1.13,2013-04-19 21:59:00,
2013-04-19 18:04:00,49.7,42.1,29.96,North,355,1.0,3.0,75,0.00,,,0.91,Wunderground v.1.13,2013-04-19 22:04:00,
2013-04-19 18:09:00,49.6,42.3,29.97,North,360,0.0,3.0,76,0.00,,,0.91,Wunderground v.1.13,2013-04-19 22:09:00,
2013-04-19 18:14:00,49.5,42.9,29.97,North,360,1.0,4.0,78,0.00,,,0.91,Wunderground v.1.13,2013-04-19 22:14:00,
2013-04-19 18:20:00,49.4,42.5,29.98,NNW,327,0.0,9.0,77,0.00,,,0.91,Wunderground v.1.13,2013-04-19 22:20:00,
2013-04-19 18:25:00,49.3,42.7,29.98,NW,306,0.0,5.0,78,0.00,,,0.91,Wunderground v.1.13,2013-04-19 22:25:00,
2013-04-19 18:30:00,49.2,42.3,29.99,West,277,0.0,6.0,77,0.00,,,0.91,Wunderground v.1.13,2013-04-19 22:30:00,
2013-04-19 18:35:00,49.1,42.5,29.98,NW,326,0.0,1.0,78,0.00,,,0.91,Wunderground v.1.13,2013-04-19 22:35:00,
2013-04-19 18:40:00,49.0,42.1,29.98,NW,321,1.0,3.0,77,0.00,,,0.91,Wunderground v.1.13,2013-04-19 22:40:00,
2013-04-19 18:45:00,48.9,42.0,29.98,North,355,0.0,1.0,77,0.00,,,0.91,Wunderground v.1.13,2013-04-19 22:45:00,
2013-04-19 18:50:00,48.9,42.3,29.98,NNW,344,0.0,3.0,78,0.00,,,0.91,Wunderground v.1.13,2013-04-19 22:50:00,
2013-04-19 18:55:00,48.9,42.3,29.99,NNW,348,3.0,3.0,78,0.00,,,0.91,Wunderground v.1.13,2013-04-19 22:55:00,
2013-04-19 19:00:00,48.9,42.3,29.99,NW,316,1.0,1.0,78,0.00,,,0.91,Wunderground v.1.13,2013-04-19 23:00:00,
2013-04-19 19:05:00,49.0,42.8,29.99,WNW,299,0.0,1.0,79,0.00,,,0.91,Wunderground v.1.13,2013-04-19 23:05:00,
2013-04-19 19:10:00,49.2,42.6,30.00,SW,232,0.0,1.0,78,0.00,,,0.91,Wunderground v.1.13,2013-04-19 23:10:00,
2013-04-19 19:15:00,49.5,41.9,30.00,West,281,2.0,2.0,75,0.00,,,0.91,Wunderground v.1.13,2013-04-19 23:15:00,
2013-04-19 19:20:00,49.2,41.6,30.00,WNW,293,1.0,2.0,75,0.00,,,0.91,Wunderground v.1.13,2013-04-19 23:20:00,
2013-04-19 19:25:00,48.9,41.0,30.00,NNW,335,0.0,1.0,74,0.00,,,0.91,Wunderground v.1.13,2013-04-19 23:25:00,
2013-04-19 19:30:00,48.5,40.6,30.00,NW,309,0.0,2.0,74,0.00,,,0.91,Wunderground v.1.13,2013-04-19 23:30:00,
2013-04-19 19:35:00,48.2,40.6,30.00,NNW,327,1.0,5.0,75,0.00,,,0.91,Wunderground v.1.13,2013-04-19 23:35:00,
2013-04-19 19:40:00,48.0,40.8,30.00,West,268,1.0,4.0,76,0.00,,,0.91,Wunderground v.1.13,2013-04-19 23:40:00,
2013-04-19 19:45:00,47.9,40.7,30.00,WNW,287,0.0,1.0,76,0.00,,,0.91,Wunderground v.1.13,2013-04-19 23:45:00,
2013-04-19 19:50:00,47.9,40.7,30.00,North,5,0.0,3.0,76,0.00,,,0.91,Wunderground v.1.13,2013-04-19 23:50:00,
2013-04-19 19:56:00,47.9,42.0,30.00,North,355,0.0,1.0,80,0.00,,,0.91,Wunderground v.1.13,2013-04-19 23:56:00,
2013-04-19 20:01:00,47.7,41.5,30.00,North,10,4.0,6.0,79,0.00,,,0.91,Wunderground v.1.13,2013-04-20 00:01:00,
2013-04-19 20:06:00,47.2,41.0,30.01,NNW,345,9.0,9.0,79,0.00,,,0.91,Wunderground v.1.13,2013-04-20 00:06:00,
2013-04-19 20:11:00,46.8,40.6,30.02,North,355,4.0,7.0,79,0.00,,,0.91,Wunderground v.1.13,2013-04-20 00:11:00,
2013-04-19 20:16:00,46.5,40.3,30.02,North,351,7.0,9.0,79,0.00,,,0.91,Wunderground v.1.13,2013-04-20 00:16:00,
2013-04-19 20:21:00,46.3,39.8,30.03,North,355,3.0,5.0,78,0.00,,,0.91,Wunderground v.1.13,2013-04-20 00:21:00,
2013-04-19 20:26:00,46.0,39.5,30.03,North,349,7.0,9.0,78,0.00,,,0.91,Wunderground v.1.13,2013-04-20 00:26:00,
2013-04-19 20:31:00,45.8,39.3,30.03,NNE,26,5.0,8.0,78,0.00,,,0.91,Wunderground v.1.13,2013-04-20 00:31:00,
2013-04-19 20:36:00,45.6,38.8,30.04,North,355,6.0,8.0,77,0.00,,,0.91,Wunderground v.1.13,2013-04-20 00:36:00,
2013-04-19 20:41:00,45.5,38.7,30.04,NNE,15,4.0,8.0,77,0.00,,,0.91,Wunderground v.1.13,2013-04-20 00:41:00,
2013-04-19 20:46:00,45.3,38.8,30.04,North,5,6.0,6.0,78,0.00,,,0.91,Wunderground v.1.13,2013-04-20 00:46:00,
2013-04-19 20:51:00,45.1,38.6,30.04,NNE,17,1.0,9.0,78,0.00,,,0.91,Wunderground v.1.13,2013-04-20 00:51:00,
2013-04-19 20:56:00,45.0,38.2,30.05,North,9,2.0,8.0,77,0.00,,,0.91,Wunderground v.1.13,2013-04-20 00:56:00,
2013-04-19 21:01:00,44.9,38.5,30.05,North,355,4.0,7.0,78,0.00,,,0.91,Wunderground v.1.13,2013-04-20 01:01:00,
2013-04-19 21:06:00,44.8,38.4,30.06,NNW,342,6.0,9.0,78,0.00,,,0.91,Wunderground v.1.13,2013-04-20 01:06:00,
2013-04-19 21:11:00,44.7,38.3,30.06,NNW,334,2.0,11.0,78,0.00,,,0.91,Wunderground v.1.13,2013-04-20 01:11:00,
2013-04-19 21:16:00,44.7,38.6,30.07,NNW,328,3.0,7.0,79,0.00,,,0.91,Wunderground v.1.13,2013-04-20 01:16:00,
2013-04-19 21:21:00,44.6,38.5,30.08,NW,323,1.0,6.0,79,0.00,,,0.91,Wunderground v.1.13,2013-04-20 01:21:00,
2013-04-19 21:26:00,44.6,38.5,30.08,NNW,340,1.0,5.0,79,0.00,,,0.91,Wunderground v.1.13,2013-04-20 01:26:00,
2013-04-19 21:31:00,44.6,38.2,30.08,NNW,342,0.0,8.0,78,0.00,,,0.91,Wunderground v.1.13,2013-04-20 01:31:00,
2013-04-19 21:36:00,44.5,38.4,30.09,NNE,15,1.0,4.0,79,0.00,,,0.91,Wunderground v.1.13,2013-04-20 01:36:00,
2013-04-19 21:41:00,44.5,38.4,30.09,NW,321,0.0,3.0,79,0.00,,,0.91,Wunderground v.1.13,2013-04-20 01:41:00,
2013-04-19 21:46:00,44.5,38.4,30.09,NW,321,0.0,8.0,79,0.00,,,0.91,Wunderground v.1.13,2013-04-20 01:46:00,
2013-04-19 21:51:00,44.5,38.4,30.10,NNE,19,3.0,3.0,79,0.00,,,0.91,Wunderground v.1.13,2013-04-20 01:51:00,
2013-04-19 21:56:00,44.4,38.6,30.10,North,355,0.0,3.0,80,0.00,,,0.91,Wunderground v.1.13,2013-04-20 01:56:00,
2013-04-19 22:01:00,44.4,38.6,30.11,NW,310,0.0,7.0,80,0.00,,,0.91,Wunderground v.1.13,2013-04-20 02:01:00,
2013-04-19 22:06:00,44.3,37.9,30.11,NNE,15,10.0,10.0,78,0.00,,,0.91,Wunderground v.1.13,2013-04-20 02:06:00,
2013-04-19 22:11:00,44.1,37.7,30.11,North,5,4.0,5.0,78,0.00,,,0.91,Wunderground v.1.13,2013-04-20 02:11:00,
2013-04-19 22:16:00,43.9,37.2,30.12,North,350,5.0,8.0,77,0.00,,,0.91,Wunderground v.1.13,2013-04-20 02:16:00,
2013-04-19 22:21:00,43.7,36.3,30.12,North,5,2.0,4.0,75,0.00,,,0.91,Wunderground v.1.13,2013-04-20 02:21:00,
2013-04-19 22:26:00,43.5,36.4,30.12,NNW,333,7.0,7.0,76,0.00,,,0.91,Wunderground v.1.13,2013-04-20 02:26:00,
2013-04-19 22:31:00,43.3,36.2,30.12,North,351,3.0,6.0,76,0.00,,,0.91,Wunderground v.1.13,2013-04-20 02:31:00,
2013-04-19 22:36:00,43.1,36.4,30.12,NNE,30,0.0,3.0,77,0.00,,,0.91,Wunderground v.1.13,2013-04-20 02:36:00,
2013-04-19 22:41:00,43.0,36.0,30.12,North,360,4.0,5.0,76,0.00,,,0.91,Wunderground v.1.13,2013-04-20 02:41:00,
2013-04-19 22:46:00,43.0,36.0,30.13,NW,305,1.0,6.0,76,0.00,,,0.91,Wunderground v.1.13,2013-04-20 02:46:00,
2013-04-19 22:51:00,43.0,36.6,30.13,NW,313,1.0,3.0,78,0.00,,,0.91,Wunderground v.1.13,2013-04-20 02:51:00,
2013-04-19 22:56:00,42.9,36.2,30.13,North,355,2.0,3.0,77,0.00,,,0.91,Wunderground v.1.13,2013-04-20 02:56:00,
2013-04-19 23:01:00,42.8,36.4,30.13,North,5,5.0,6.0,78,0.00,,,0.91,Wunderground v.1.13,2013-04-20 03:01:00,
2013-04-19 23:06:00,42.7,36.0,30.13,NNW,328,0.0,5.0,77,0.00,,,0.91,Wunderground v.1.13,2013-04-20 03:06:00,
2013-04-19 23:11:00,42.6,36.2,30.14,North,5,2.0,6.0,78,0.00,,,0.91,Wunderground v.1.13,2013-04-20 03:11:00,
2013-04-19 23:17:00,42.5,36.1,30.14,North,9,0.0,5.0,78,0.00,,,0.91,Wunderground v.1.13,2013-04-20 03:17:00,
2013-04-19 23:22:00,42.5,36.1,30.14,North,360,6.0,6.0,78,0.00,,,0.91,Wunderground v.1.13,2013-04-20 03:22:00,
2013-04-19 23:26:00,42.5,36.4,30.15,North,355,0.0,4.0,79,0.00,,,0.91,Wunderground v.1.13,2013-04-20 03:26:00,
2013-04-19 23:32:00,42.4,35.7,30.14,North,5,2.0,7.0,77,0.00,,,0.91,Wunderground v.1.13,2013-04-20 03:32:00,
2013-04-19 23:37:00,42.3,35.6,30.15,NNW,342,3.0,7.0,77,0.00,,,0.91,Wunderground v.1.13,2013-04-20 03:37:00,
2013-04-19 23:42:00,42.2,35.2,30.15,North,350,5.0,8.0,76,0.00,,,0.91,Wunderground v.1.13,2013-04-20 03:42:00,
2013-04-19 23:47:00,42.1,34.7,30.16,North,5,5.0,7.0,75,0.00,,,0.91,Wunderground v.1.13,2013-04-20 03:47:00,
2013-04-19 23:52:00,42.0,34.6,30.16,North,350,3.0,9.0,75,0.00,,,0.91,Wunderground v.1.13,2013-04-20 03:52:00,
2013-04-19 23:57:00,41.8,34.5,30.16,NW,309,1.0,9.0,75,0.00,,,0.91,Wunderground v.1.13,2013-04-20 03:57:00,